Date String (YYYY-MM-DD hh:mm:ss) UTC,Instrument flags,absolute air pressure of the measurement (hPa),sample flow rate (lpm),inlet stack bypass flow (lpm),air temperature of the measurement (°C),ambient temperature measured by the external sensor (°C),aerosol sample conditioner tube jacket temperature (°C),OPC LED temperature (°C),internal box temperature (°C),relative humidity of the measurement (%),span deviation,mass concentration of particles derived from Lorenz-Mie calculation of OPC scattering (μg/m³),mass concentration of particles derived from Lorenz-Mie calculation of OPC scattering (μg/m³),mass concentration of particles derived from Lorenz-Mie calculation of OPC scattering (μg/m³)
DateTimeUTC,F1_M11,P_M11,Q1_M11,Q2_M11,T1_M11,T2_M11,T3_M11,T4_M11,T5_M11,U1_M11,ZSPAN_M11,X2_M11,X0_M11,X1_M11
2023-12-18 19:00:00,SystemResetWarning,0830.7,5.00,000.00,022.5,021.9,000.0,030.5,023.9,10.4,0000.0,0003.04,0006.74,0002.58
2023-12-18 19:01:00,SystemResetWarning,0830.7,4.98,000.00,022.5,021.9,000.0,030.5,023.9,10.4,0000.0,0003.09,0007.79,0002.60
2023-12-18 19:02:00,SystemResetWarning,0830.7,5.00,000.00,022.5,021.9,000.0,030.5,023.9,10.3,0000.0,0003.10,0007.83,0002.59
2023-12-18 19:03:00,SystemResetWarning,0830.7,5.01,000.00,022.5,021.9,000.0,030.6,023.9,10.4,0000.0,0003.10,0007.70,0002.59
2023-12-18 19:04:00,SystemResetWarning,0830.7,5.00,000.00,022.5,021.9,000.0,030.6,023.9,10.3,0000.0,0003.12,0007.84,0002.61
2023-12-18 19:05:00,SystemResetWarning,0830.7,4.99,000.00,022.5,021.9,000.0,030.6,023.9,10.2,0000.0,0003.12,0007.92,0002.61
2023-12-18 19:06:00,SystemResetWarning,0830.6,4.99,000.00,022.6,021.9,000.0,030.6,023.9,10.3,0000.0,0003.12,0007.81,0002.60
2023-12-18 19:07:00,SystemResetWarning,0830.5,5.01,000.00,022.6,021.9,000.0,030.6,024.0,10.3,0000.0,0003.11,0007.77,0002.61
2023-12-18 19:08:00,SystemResetWarning,0830.6,5.01,000.00,022.6,021.9,000.0,030.6,024.0,10.3,0000.0,0003.16,0008.27,0002.60
2023-12-18 19:09:00,SystemResetWarning,0830.6,5.00,000.00,022.6,021.9,000.0,030.6,024.0,10.3,0000.0,0003.17,0008.52,0002.63
2023-12-18 19:10:00,SystemResetWarning,0830.5,5.00,000.00,022.6,021.9,000.0,030.7,024.0,10.3,0000.0,0003.21,0008.94,0002.66
2023-12-18 19:11:00,SystemResetWarning,0830.4,5.00,000.00,022.6,021.9,000.0,030.7,024.0,10.2,0000.0,0003.20,0008.01,0002.68
2023-12-18 19:12:00,SystemResetWarning,0830.5,4.99,000.00,022.6,021.9,000.0,030.7,024.0,10.2,0000.0,0003.18,0007.38,0002.68
2023-12-18 19:13:00,SystemResetWarning,0830.5,5.00,000.00,022.6,021.9,000.0,030.7,024.0,10.2,0000.0,0003.17,0008.95,0002.70
2023-12-18 19:14:00,SystemResetWarning,0830.4,5.00,000.00,022.6,021.9,000.0,030.7,024.0,10.3,0000.0,0003.18,0008.97,0002.72
2023-12-18 19:15:00,SystemResetWarning,0830.4,5.01,000.00,022.6,021.9,000.0,030.7,024.0,10.3,0000.0,0003.21,0008.94,0002.74
2023-12-18 19:16:00,SystemResetWarning,0830.4,5.00,000.00,022.6,021.9,000.0,030.8,024.0,10.4,0000.0,0003.22,0008.83,0002.76
2023-12-18 19:17:00,SystemResetWarning,0830.4,4.99,000.00,022.6,021.9,000.0,030.8,024.0,10.3,0000.0,0003.24,0008.83,0002.77
2023-12-18 19:18:00,SystemResetWarning,0830.4,5.01,000.00,022.7,021.9,000.0,030.8,024.0,10.5,0000.0,0003.26,0008.86,0002.81
2023-12-18 19:19:00,SystemResetWarning,0830.4,5.00,000.00,022.7,021.9,000.0,030.8,024.0,10.6,0000.0,0003.24,0008.50,0002.84
2023-12-18 19:20:00,SystemResetWarning,0830.3,5.00,000.00,022.7,021.9,000.0,030.8,024.0,10.7,0000.0,0003.25,0008.22,0002.86
2023-12-18 19:21:00,SystemResetWarning,0830.4,5.00,000.00,022.7,021.9,000.0,030.8,024.0,10.8,0000.0,0003.24,0008.03,0002.87
2023-12-18 19:22:00,SystemResetWarning,0830.3,5.01,000.00,022.7,021.8,000.0,030.8,024.0,10.7,0000.0,0003.26,0007.75,0002.89
2023-12-18 19:23:00,SystemResetWarning,0830.4,5.00,000.00,022.7,021.8,000.0,030.8,024.0,10.7,0000.0,0003.31,0008.19,0002.92
2023-12-18 19:24:00,SystemResetWarning,0830.3,5.00,000.00,022.6,021.8,000.0,030.8,024.0,10.8,0000.0,0003.35,0007.32,0002.98
2023-12-18 19:25:00,SystemResetWarning,0830.3,5.00,000.00,022.6,021.8,000.0,030.8,024.0,10.7,0000.0,0003.43,0007.12,0003.02
2023-12-18 19:26:00,SystemResetWarning,0830.3,5.00,000.00,022.6,021.8,000.0,030.8,023.9,10.8,0000.0,0003.47,0007.25,0003.06
2023-12-18 19:27:00,SystemResetWarning,0830.3,5.00,000.00,022.6,021.8,000.0,030.8,023.9,10.9,0000.0,0003.47,0007.58,0003.10
2023-12-18 19:28:00,SystemResetWarning,0830.2,5.00,000.00,022.6,021.8,000.0,030.8,024.0,10.9,0000.0,0003.51,0008.60,0003.13
2023-12-18 19:29:00,SystemResetWarning,0830.2,5.00,000.00,022.6,021.8,000.0,030.8,023.9,11.0,0000.0,0003.52,0009.64,0003.14
2023-12-18 19:30:00,SystemResetWarning,0830.2,5.00,000.00,022.6,021.8,000.0,030.8,024.0,11.0,0000.0,0003.55,0009.92,0003.16
2023-12-18 19:31:00,SystemResetWarning,0830.2,5.00,000.00,022.6,021.8,000.0,030.8,024.0,11.0,0000.0,0003.59,0010.22,0003.16
2023-12-18 19:32:00,SystemResetWarning,0830.1,5.01,000.00,022.6,021.8,000.0,030.8,024.0,11.0,0000.0,0003.61,0010.66,0003.17
2023-12-18 19:33:00,SystemResetWarning,0830.1,5.01,000.00,022.7,021.8,000.0,030.8,024.0,11.0,0000.0,0003.60,0010.64,0003.17
2023-12-18 19:34:00,SystemResetWarning,0830.0,5.01,000.00,022.7,021.8,000.0,030.8,024.0,11.1,0000.0,0003.61,0010.23,0003.18
2023-12-18 19:35:00,SystemResetWarning,0830.0,5.00,000.00,022.6,021.8,000.0,030.9,024.0,11.0,0000.0,0003.60,0009.96,0003.18
2023-12-18 19:36:00,SystemResetWarning,0830.0,4.98,000.00,022.7,021.8,000.0,030.9,024.0,11.0,0000.0,0003.56,0009.52,0003.17
2023-12-18 19:37:00,SystemResetWarning,0830.0,5.00,000.00,022.7,021.8,000.0,030.9,024.0,11.1,0000.0,0003.53,0009.49,0003.16
2023-12-18 19:38:00,SystemResetWarning,0830.0,5.01,000.00,022.7,021.8,000.0,030.9,024.0,11.0,0000.0,0003.53,0009.32,0003.16
2023-12-18 19:39:00,SystemResetWarning,0830.0,5.01,000.00,022.7,021.8,000.0,030.9,024.0,11.1,0000.0,0003.51,0008.30,0003.16
2023-12-18 19:40:00,SystemResetWarning,0830.0,5.00,000.00,022.7,021.8,000.0,030.9,024.0,11.3,0000.0,0003.53,0007.50,0003.17
2023-12-18 19:41:00,SystemResetWarning,0830.0,4.99,000.00,022.7,021.8,000.0,030.9,024.0,11.4,0000.0,0003.54,0007.55,0003.17
2023-12-18 19:42:00,SystemResetWarning,0830.0,4.99,000.00,022.7,021.8,000.0,030.9,024.0,11.6,0000.0,0003.53,0007.67,0003.18
2023-12-18 19:43:00,SystemResetWarning,0830.0,5.01,000.00,022.6,021.8,000.0,030.9,024.0,11.8,0000.0,0003.50,0007.52,0003.18
2023-12-18 19:44:00,SystemResetWarning,0830.0,5.00,000.00,022.6,021.7,000.0,030.9,023.9,11.9,0000.0,0003.50,0007.58,0003.18
2023-12-18 19:45:00,SystemResetWarning,0830.0,5.01,000.00,022.7,021.7,000.0,030.9,023.9,12.0,0000.0,0003.50,0007.62,0003.18
2023-12-18 19:46:00,SystemResetWarning,0829.9,5.00,000.00,022.7,021.7,000.0,030.9,024.0,12.0,0000.0,0003.52,0007.72,0003.19
2023-12-18 19:47:00,SystemResetWarning,0829.9,4.99,000.00,022.7,021.7,000.0,030.9,024.0,12.1,0000.0,0003.56,0008.50,0003.20
2023-12-18 19:48:00,SystemResetWarning,0829.9,5.01,000.00,022.7,021.7,000.0,030.9,024.0,12.2,0000.0,0003.58,0009.00,0003.21
2023-12-18 19:49:00,SystemResetWarning,0829.8,5.01,000.00,022.7,021.8,000.0,030.9,024.0,12.2,0000.0,0003.64,0009.27,0003.22
2023-12-18 19:50:00,SystemResetWarning,0829.8,5.01,000.00,022.7,021.8,000.0,030.9,024.0,12.2,0000.0,0003.68,0009.55,0003.22
2023-12-18 19:51:00,SystemResetWarning,0829.8,5.00,000.00,022.7,021.8,000.0,030.9,024.0,12.3,0000.0,0003.70,0009.50,0003.23
2023-12-18 19:52:00,SystemResetWarning,0829.7,5.00,000.00,022.7,021.8,000.0,030.9,024.0,12.0,0000.0,0003.73,0009.74,0003.24
2023-12-18 19:53:00,SystemResetWarning,0829.7,4.99,000.00,022.7,021.8,000.0,030.9,024.0,11.9,0000.0,0003.78,0010.95,0003.25
2023-12-18 19:54:00,SystemResetWarning,0829.7,5.01,000.00,022.7,021.8,000.0,030.9,024.0,11.9,0000.0,0003.84,0010.73,0003.28
2023-12-18 19:55:00,SystemResetWarning,0829.7,5.02,000.00,022.7,021.8,000.0,030.9,024.0,11.9,0000.0,0003.90,0010.96,0003.30
2023-12-18 19:56:00,SystemResetWarning,0829.7,5.00,000.00,022.7,021.8,000.0,030.9,024.0,12.1,0000.0,0003.94,0011.65,0003.32
2023-12-18 19:57:00,SystemResetWarning,0829.7,5.00,000.00,022.7,021.8,000.0,030.9,024.1,12.1,0000.0,0003.94,0011.87,0003.32
2023-12-18 19:58:00,SystemResetWarning,0829.6,5.00,000.00,022.7,021.8,000.0,030.9,024.1,12.2,0000.0,0003.93,0011.49,0003.33
2023-12-18 19:59:00,SystemResetWarning,0829.6,5.00,000.00,022.7,021.8,000.0,030.9,024.1,12.3,0000.0,0003.93,0011.26,0003.33
